Showing default

HAWK-14C, 68441

Orbit data source: Space-Track

HAWK-14C, 68441 is a payload satellite owned by HawkEye 360 (US) in SSO that was launched on Mon, 30 Mar 2026 UTC via an FALCON 9 launch vehicle from the Air Force Western Test Range (AFWTR). Payload-class satellites include a variety of spacecraft equipped with specific instruments for various scientific and technological missions. These include communications satellites like Starlink; space stations such as the ISS; scientific satellites like the Hubble; Earth observation satellites from companies like Planet Labs, Umbra, and HawkEye 360; GPS; miniature CubeSats for education and research; and military/defense satellites.

Loading next visibility...
Identifier
68441, 2026-067AB
Orbit
SSO
Country
Flag of USUS
Related business
Manufacturer
UTIAS-SFL
Mission
Operational Commercial Sigint
Bus & Motor
HAWK2G, Unknown motor
Mass
31 kg wet, 30 kg dry
Launch date (UTC)
2026-03-30 (5 months ago)
Launch vehicle
FALCON 9
Launch site
Air Force Western Test Range (AFWTR)
Object type
Payload
Rocket body
Debris
Shape & HBR
Box + 2 Pan, 1.0 m
Radar Cross Section
0.240 m², Medium (>0.1 m² and < 1m²)

Expand to show TLE details & history
Last TLE update: 6 hours ago

TLE from 6 hours ago
0 HAWK-14C
1 68441U 26067AB  26249.59673097  .00002611  00000-0  12880-3 0  9995
2 68441  97.4565 206.7772 0003885 127.7880 232.3707 15.18789659 24299
Epoch: 2026-09-06T14:19Z
TLE epoch observation values (Epoch: 2026-09-06T14:19:17.555Z)
Latitude
-0.00001°
Longitude
6.26448°
Altitude
514.219 km
Speed
7.606 km/s
True Right ascension
13h 47m 06s
True Declination
0° 00' 00"
Sunlit
Object was in daylight at epoch
Visualization orbit readout
Latitude
Unknown
Longitude
Unknown
Altitude
Unknown
Speed
Unknown
Apparent Right ascension
Unknown
Apparent Declination
Unknown
Sunlit
N/A
Visualization observer readout
Local Sidereal Time
12:39:59
Azimuth
Unknown
Elevation
Unknown
Doppler factor
Unknown
Orbital elements
Apogee altitude
509.142 km
Perigee altitude
503.792 km
Semi-major axis
6,884.604 km
Eccentricity
0.00039
Inclination
97.4565°
RAAN
206.7772°
Arg. of periapsis
127.788°
True anomaly
232.33545°
Mean anomaly
232.3707°
Eccentric anomaly
232.35308°
Mean motion
3.79948 °/min
Orbital period
94.75 mins
BSTAR
0.0001288
Loading maneuver chart data...
Computing Atmospheric mass density...
Loading historical data...
Loading historical data...
Loading historical data...
Loading historical data...
Loading historical data...
Loading historical data...
Loading historical data...

Documentation

Showing up to 5 results
|